ON7CFI Weather Reports


time (UTC)temp
F
wind
direction
speed
knots
gust
knots
rain 1hr
in
rain 24hr
in
rain mn
in
humidity
%
barometer
mb
20260507170218 59 75 0.9 2.6 0.00 0.00 0.00 63 1015.4
20260507165503 59 76 0.9 2.6 0.00 0.00 0.00 63 1015.4
20260507165003 59 83 0.9 2.6 0.00 0.00 0.00 63 1015.3
20260507164503 59 78 0.9 2.6 0.00 0.00 0.00 63 1015.3
20260507164003 59 82 0.9 2.6 0.00 0.00 0.00 62 1015.4
20260507163717 59 85 1.7 3.5 0.00 0.00 0.00 62 1015.3
20260507163003 59 78 0.9 3.5 0.00 0.00 0.00 62 1015.4
20260507162503 59 83 0.9 3.5 0.00 0.00 0.00 63 1015.4
20260507162003 59 91 0.9 3.5 0.00 0.00 0.00 61 1015.4
20260507161503 59 80 0.9 3.5 0.00 0.00 0.00 61 1015.5
20260507161003 59 62 0.9 3.5 0.00 0.00 0.00 61 1015.5
20260507160508 59 50 0.9 2.6 0.00 0.00 0.00 61 1015.5
20260507160003 59 71 0.9 2.6 0.00 0.00 0.00 62 1015.5
20260507155503 59 77 0.9 2.6 0.00 0.00 0.00 63 1015.4
20260507155003 59 75 0.9 3.5 0.00 0.00 0.00 62 1015.5
20260507154503 59 74 0.9 3.5 0.00 0.00 0.00 61 1015.5
20260507154218 59 74 0.9 3.5 0.00 0.00 0.00 60 1015.5
20260507153717 59 80 0.9 3.5 0.00 0.00 0.00 61 1015.6
20260507153003 59 72 0.9 3.5 0.00 0.00 0.00 61 1015.5
20260507152503 59 68 0.9 3.5 0.00 0.00 0.00 62 1015.4
20260507152218 59 71 0.9 2.6 0.00 0.00 0.00 62 1015.4
20260507151717 59 81 0.9 2.6 0.00 0.00 0.00 62 1015.4
20260507151003 59 77 0.9 4.3 0.00 0.00 0.00 60 1015.3
20260507150717 59 65 0.9 4.3 0.00 0.00 0.00 58 1015.3
20260507150003 59 26 0.9 2.6 0.00 0.00 0.00 60 1015.3
20260507145717 59 56 0.9 2.6 0.00 0.00 0.00 60 1015.3
20260507145218 59 17 0.9 3.5 0.00 0.00 0.00 60 1015.3
20260507144504 59 26 0.9 2.6 0.00 0.00 0.00 62 1015.3
20260507144003 59 74 0.9 3.5 0.00 0.00 0.00 62 1015.3
20260507143717 59 75 0.9 3.5 0.00 0.00 0.00 61 1015.4
20260507143003 59 75 0.9 2.6 0.00 0.00 0.00 62 1015.4
20260507142503 59 74 1.7 4.3 0.00 0.00 0.00 62 1015.5
20260507142003 59 65 1.7 4.3 0.00 0.00 0.00 62 1015.5
20260507141503 59 32 0.9 4.3 0.00 0.00 0.00 61 1015.5
20260507141003 59 344 0.9 4.3 0.00 0.00 0.00 62 1015.5
20260507140503 59 47 1.7 4.3 0.00 0.00 0.00 63 1015.5
20260507140003 60 43 0.9 4.3 0.00 0.00 0.00 61 1015.6
20260507135508 60 327 0.9 2.6 0.00 0.00 0.00 61 1015.6
20260507135003 60 337 0.9 2.6 0.00 0.00 0.00 61 1015.6
20260507134503 60 345 0.9 2.6 0.00 0.00 0.00 61 1015.5
20260507134003 60 335 0.9 1.7 0.00 0.00 0.00 61 1015.6
20260507133503 60 330 0.9 1.7 0.00 0.00 0.00 58 1015.5
20260507133003 60 50 0.9 2.6 0.00 0.00 0.00 58 1015.5
20260507132503 60 76 0.9 2.6 0.00 0.00 0.00 59 1015.4
20260507132003 60 69 0.9 2.6 0.00 0.00 0.00 57 1015.4
20260507131503 60 309 0.9 1.7 0.00 0.00 0.00 58 1015.5
20260507131003 60 296 0.9 1.7 0.00 0.00 0.00 57 1015.4
20260507130503 60 329 0.9 2.6 0.00 0.00 0.00 54 1015.4
20260507130004 60 35 0.9 2.6 0.00 0.00 0.00 56 1015.5
20260507125503 60 81 0.9 2.6 0.00 0.00 0.00 56 1015.5
20260507125003 60 80 0.9 2.6 0.00 0.00 0.00 57 1015.4
20260507124503 60 358 0.9 3.5 0.00 0.00 0.00 56 1015.4
20260507124217 60 23 0.9 4.3 0.00 0.00 0.00 58 1015.4
20260507123503 60 83 1.7 6.1 0.00 0.00 0.00 56 1015.4
20260507123003 61 94 1.7 6.1 0.00 0.00 0.00 58 1015.4
20260507122503 61 105 1.7 6.1 0.00 0.00 0.00 56 1015.4
20260507122003 61 71 1.7 3.5 0.00 0.00 0.00 56 1015.4
20260507121503 61 54 1.7 4.3 0.00 0.00 0.00 58 1015.4
20260507121003 61 93 1.7 4.3 0.00 0.00 0.00 57 1015.3
20260507120503 61 106 0.9 2.6 0.00 0.00 0.00 58 1015.4
20260507120217 61 102 0.9 2.6 0.00 0.00 0.00 59 1015.4
20260507115508 60 83 1.7 5.2 0.00 0.00 0.00 57 1015.3
20260507115003 60 82 1.7 5.2 0.00 0.00 0.00 58 1015.4
20260507114718 60 74 1.7 3.5 0.00 0.00 0.00 61 1015.3
20260507114003 59 70 0.9 3.5 0.00 0.00 0.00 61 1015.4
20260507113503 59 96 0.9 3.5 0.00 0.00 0.00 60 1015.3
20260507113004 59 98 0.9 5.2 0.00 0.00 0.00 59 1015.4
20260507112503 59 94 1.7 5.2 0.00 0.00 0.00 59 1015.4
20260507112003 58 84 1.7 3.5 0.00 0.00 0.00 59 1015.4
20260507111504 58 78 0.9 3.5 0.00 0.00 0.00 61 1015.5
20260507111003 58 74 1.7 3.5 0.00 0.00 0.00 64 1015.5
20260507110503 58 74 0.9 4.3 0.00 0.00 0.00 63 1015.5
20260507110003 58 94 0.9 4.3 0.00 0.00 0.00 66 1015.5
20260507105503 58 48 0.9 2.6 0.00 0.00 0.00 66 1015.5
20260507105008 57 358 0.9 3.5 0.00 0.00 0.00 67 1015.6
20260507104717 57 24 0.9 3.5 0.00 0.00 0.00 66 1015.6
20260507104003 57 77 0.9 3.5 0.00 0.00 0.00 66 1015.5
20260507103503 57 76 0.9 5.2 0.00 0.00 0.00 67 1015.5
20260507103218 57 76 0.9 5.2 0.00 0.00 0.00 67 1015.5
20260507102503 57 78 1.7 3.5 0.00 0.00 0.00 66 1015.5
20260507101504 58 67 0.9 4.3 0.00 0.00 0.00 65 1015.4
20260507101004 58 105 1.7 5.2 0.00 0.00 0.00 65 1015.4
20260507100503 59 110 1.7 5.2 0.00 0.00 0.00 68 1015.4
20260507100003 58 108 1.7 3.5 0.00 0.00 0.00 68 1015.3
20260507095503 58 105 1.7 3.5 0.00 0.00 0.00 67 1015.3
20260507095218 58 102 1.7 6.1 0.00 0.00 0.00 66 1015.4
20260507094503 58 78 1.7 6.1 0.00 0.00 0.00 64 1015.4
20260507094003 58 93 1.7 6.1 0.00 0.00 0.00 65 1015.4
20260507093503 58 93 0.9 3.5 0.00 0.00 0.00 67 1015.4
20260507093003 58 80 1.7 6.1 0.00 0.00 0.00 68 1015.3
20260507092503 57 83 1.7 6.1 0.00 0.00 0.00 69 1015.3
20260507092004 57 9 0.9 3.5 0.00 0.00 0.00 72 1015.2
20260507091503 57 297 0.9 2.6 0.00 0.00 0.00 73 1015.2
20260507091003 56 5 1.7 3.5 0.00 0.00 0.00 72 1015.2
20260507090716 56 46 1.7 3.5 0.00 0.00 0.00 73 1015.2
20260507090217 56 58 1.7 3.5 0.00 0.00 0.00 73 1015.2
20260507085503 56 35 0.9 3.5 0.00 0.00 0.00 73 1015.2
20260507085003 56 332 1.7 3.5 0.00 0.00 0.00 74 1015.2
20260507084503 56 18 1.7 5.2 0.00 0.00 0.00 75 1015.2
20260507084003 55 65 0.9 5.2 0.00 0.01 0.00 75 1015.2
20260507083503 55 357 1.7 4.3 0.00 0.01 0.00 73 1015.2
20260507083004 56 351 1.7 4.3 0.00 0.01 0.00 75 1015.1
20260507082503 56 57 1.7 5.2 0.00 0.01 0.00 74 1015.1
20260507082217 56 76 1.7 5.2 0.00 0.01 0.00 74 1015.1
20260507081503 56 81 1.7 5.2 0.00 0.01 0.00 76 1015.0
20260507081003 55 20 1.7 5.2 0.00 0.01 0.00 76 1015.0
20260507080503 55 28 1.7 5.2 0.00 0.01 0.00 78 1015.0
20260507080003 55 18 0.9 2.6 0.00 0.02 0.00 79 1015.0
20260507075503 54 343 0.9 2.6 0.00 0.02 0.00 80 1015.0
20260507075217 54 337 0.9 2.6 0.00 0.02 0.00 80 1014.9
20260507074503 53 329 0.9 2.6 0.00 0.02 0.00 80 1015.0
20260507074217 53 344 0.9 2.6 0.00 0.02 0.00 80 1014.9
20260507073503 53 267 0.9 2.6 0.00 0.03 0.00 81 1014.9
20260507073004 52 298 0.9 2.6 0.00 0.03 0.00 82 1014.9
20260507072504 52 313 0.9 2.6 0.00 0.04 0.00 82 1014.8
20260507072003 52 62 0.9 3.5 0.00 0.04 0.00 82 1014.7
20260507071718 52 74 0.9 3.5 0.00 0.04 0.00 83 1014.8
20260507071003 52 338 0.9 2.6 0.00 0.04 0.00 84 1014.8
20260507070503 52 292 0.9 3.5 0.00 0.05 0.00 83 1014.9
20260507070007 52 290 0.9 3.5 0.00 0.05 0.00 83 1014.8
20260507065503 51 45 0.9 2.6 0.00 0.05 0.00 84 1014.7
20260507065003 51 25 0.9 3.5 0.00 0.05 0.00 83 1014.7
20260507064504 51 33 0.9 3.5 0.00 0.06 0.00 84 1014.7
20260507064004 51 63 0.9 3.5 0.00 0.06 0.00 84 1014.6
20260507063718 51 33 0.0 3.5 0.00 0.06 0.00 85 1014.6
20260507063003 50 305 0.9 2.6 0.00 0.07 0.00 85 1014.5
20260507062717 50 312 0.9 2.6 0.00 0.08 0.00 85 1014.6
20260507062003 50 342 0.9 1.7 0.00 0.08 0.00 86 1014.5
20260507061503 50 19 0.9 1.7 0.00 0.09 0.00 86 1014.5
20260507061003 50 63 0.9 1.7 0.00 0.09 0.00 86 1014.3
20260507060503 49 63 0.9 1.7 0.00 0.09 0.00 87 1014.3
20260507060003 49 63 0.0 1.7 0.00 0.09 0.00 88 1014.2
20260507055504 49 63 0.0 1.7 0.00 0.09 0.00 88 1014.2
20260507055218 49 63 0.0 0.9 0.00 0.09 0.00 88 1014.2
20260507054503 48 63 0.0 1.7 0.00 0.09 0.00 89 1014.0
20260507054003 48 63 0.0 1.7 0.00 0.09 0.00 89 1014.0
20260507053503 48 63 0.0 0.9 0.00 0.10 0.00 90 1013.9
20260507053004 48 63 0.0 0.9 0.00 0.10 0.00 90 1014.0
20260507052503 48 63 0.0 0.9 0.00 0.11 0.00 91 1014.1
20260507052003 48 63 0.0 0.9 0.00 0.11 0.00 90 1014.0
20260507051503 48 0 0.0 0.0 0.00 0.11 0.00 91 1013.9
20260507051003 48 63 0.0 0.9 0.00 0.11 0.00 91 1013.8
20260507050503 48 63 0.0 0.9 0.00 0.11 0.00 92 1013.8
20260507050003 47 63 0.0 0.9 0.00 0.11 0.00 92 1013.8
20260507045717 47 63 0.0 0.9 0.00 0.11 0.00 92 1013.8
20260507045003 47 63 0.0 0.9 0.00 0.12 0.00 91 1013.7
20260507044717 47 63 0.0 0.9 0.00 0.12 0.00 91 1013.6
20260507044003 47 0 0.0 0.0 0.00 0.12 0.00 91 1013.7
20260507043503 47 63 0.0 0.9 0.00 0.12 0.00 91 1013.6
20260507043003 47 63 0.0 0.9 0.00 0.13 0.00 91 1013.5
20260507042504 47 63 0.0 0.9 0.00 0.13 0.00 92 1013.5
20260507042003 47 63 0.0 0.9 0.00 0.13 0.00 92 1013.4
20260507041503 48 0 0.0 0.0 0.00 0.13 0.00 92 1013.5
20260507041004 48 63 0.0 0.9 0.00 0.14 0.00 93 1013.4
20260507040504 48 63 0.0 0.9 0.00 0.14 0.00 93 1013.4
20260507040003 48 63 0.0 0.9 0.00 0.15 0.00 93 1013.4
20260507035503 48 63 0.0 0.9 0.00 0.15 0.00 92 1013.3
20260507035003 48 63 0.0 0.9 0.00 0.16 0.00 92 1013.2
20260507034503 48 0 0.0 0.0 0.00 0.16 0.00 92 1013.3
20260507034217 48 63 0.0 0.9 0.00 0.16 0.00 92 1013.3
20260507033503 48 63 0.0 0.9 0.00 0.17 0.00 92 1013.2
20260507033003 48 0 0.0 0.0 0.00 0.17 0.00 92 1013.2
20260507032504 48 0 0.0 0.0 0.00 0.17 0.00 92 1013.2
20260507032003 48 63 0.0 0.9 0.00 0.17 0.00 92 1013.3
20260507031718 48 63 0.0 0.9 0.00 0.17 0.00 91 1013.2
20260507031003 48 63 0.0 0.9 0.00 0.17 0.00 91 1013.1
20260507030718 48 63 0.0 0.9 0.00 0.17 0.00 92 1013.1
20260507030003 48 63 0.0 0.9 0.00 0.18 0.00 92 1013.0
20260507025503 48 63 0.0 1.7 0.00 0.18 0.00 92 1013.1
20260507025003 48 63 0.0 1.7 0.00 0.18 0.00 92 1013.1
20260507024503 48 63 0.0 0.9 0.00 0.18 0.00 93 1013.1
20260507024217 48 63 0.0 0.9 0.00 0.18 0.00 93 1013.1
20260507023503 48 63 0.0 0.9 0.00 0.19 0.00 93 1013.0
20260507023003 48 63 0.0 0.9 0.00 0.19 0.00 94 1013.0
20260507022503 48 0 0.0 0.0 0.00 0.19 0.00 94 1012.9
20260507022003 48 0 0.0 0.0 0.00 0.20 0.00 93 1012.8
20260507021503 48 0 0.0 0.0 0.00 0.20 0.00 93 1012.8
20260507021003 48 0 0.0 0.0 0.00 0.20 0.00 93 1012.7
20260507020718 48 0 0.0 0.0 0.00 0.20 0.00 93 1012.8
20260507020217 48 0 0.0 0.0 0.00 0.20 0.00 93 1012.7
20260507015503 48 0 0.0 0.0 0.00 0.21 0.00 93 1012.6
20260507015003 48 0 0.0 0.0 0.00 0.21 0.00 93 1012.6
20260507014503 48 0 0.0 0.0 0.00 0.22 0.00 93 1012.7
20260507014004 48 0 0.0 0.0 0.00 0.22 0.00 93 1012.7
20260507013503 48 0 0.0 0.0 0.00 0.23 0.00 93 1012.7
20260507013003 48 0 0.0 0.0 0.00 0.23 0.00 93 1012.7
20260507012503 48 0 0.0 0.0 0.00 0.24 0.00 92 1012.8
20260507012003 48 0 0.0 0.0 0.00 0.24 0.00 92 1012.7
20260507011503 48 0 0.0 0.0 0.00 0.24 0.00 92 1012.7
20260507010717 48 63 0.0 0.9 0.00 0.25 0.00 92 1012.7
20260507010004 48 63 0.0 0.9 0.00 0.27 0.00 92 1012.6
20260507005503 48 0 0.0 0.0 0.00 0.28 0.00 91 1012.7
20260507005003 48 0 0.0 0.0 0.00 0.28 0.00 91 1012.7
20260507004503 48 0 0.0 0.0 0.00 0.28 0.00 91 1012.6
20260507004003 48 63 0.0 0.9 0.00 0.29 0.00 91 1012.7
20260507003503 48 63 0.0 0.9 0.00 0.30 0.00 91 1012.7
20260507003218 48 63 0.0 0.9 0.00 0.31 0.00 91 1012.6
20260507002503 48 0 0.0 0.0 0.00 0.32 0.00 90 1012.6
20260507002003 48 0 0.0 0.0 0.00 0.33 0.00 90 1012.6
20260507001503 48 0 0.0 0.0 0.00 0.34 0.00 90 1012.6
20260507001003 48 63 0.0 0.9 0.00 0.35 0.00 90 1012.6
20260507000503 48 63 0.0 1.7 0.00 0.35 0.00 89 1012.7
20260507000009 48 63 0.0 1.7 0.00 0.36 0.00 89 1012.6
20260506235503 48 63 0.0 1.7 0.00 0.37 0.00 90 1012.7
20260506235218 48 63 0.0 1.7 0.00 0.38 0.00 90 1012.6
20260506234504 48 63 0.9 1.7 0.00 0.39 0.00 90 1012.6
20260506234218 48 63 0.0 1.7 0.00 0.39 0.00 90 1012.5
20260506233503 48 40 0.9 2.6 0.00 0.40 0.00 90 1012.5
20260506233003 48 15 0.9 2.6 0.00 0.41 0.00 90 1012.4
20260506232503 48 343 0.9 2.6 0.00 0.41 0.00 90 1012.4
20260506232218 48 337 0.0 1.7 0.00 0.42 0.00 90 1012.4
20260506231504 48 317 0.0 0.9 0.00 0.43 0.00 90 1012.2
20260506231003 48 317 0.0 0.9 0.00 0.43 0.00 90 1012.2
20260506230717 48 317 0.0 0.9 0.00 0.44 0.00 90 1012.2
20260506230003 48 317 0.0 1.7 0.00 0.45 0.00 90 1012.2
20260506225503 48 317 0.0 0.9 0.00 0.46 0.00 90 1012.1
20260506225003 48 314 0.0 1.7 0.00 0.46 0.00 90 1012.0
20260506224503 48 314 0.0 1.7 0.00 0.46 0.00 90 1012.0
20260506224218 48 318 0.0 2.6 0.00 0.46 0.00 90 1011.9
20260506223503 48 48 0.9 2.6 0.00 0.47 0.00 90 1012.0
20260506223003 48 77 0.9 2.6 0.00 0.48 0.00 90 1011.9
20260506222503 48 76 0.9 2.6 0.00 0.49 0.00 90 1011.8
20260506222003 48 64 0.9 2.6 0.00 0.50 0.00 90 1011.8
20260506221504 48 49 0.9 2.6 0.00 0.50 0.00 90 1011.8
20260506221217 48 48 0.9 1.7 0.00 0.51 0.00 90 1011.8
20260506220508 48 69 0.0 1.7 0.00 0.52 0.00 90 1011.7
20260506220004 48 69 0.9 3.5 0.00 0.53 0.00 90 1011.8
20260506215503 48 71 0.0 3.5 0.00 0.55 0.53 90 1011.7
20260506215004 48 74 0.0 1.7 0.00 0.57 0.53 90 1011.7
20260506214503 48 69 0.9 1.7 0.00 0.58 0.53 90 1011.6
20260506214003 48 67 0.9 3.5 0.00 0.59 0.53 90 1011.6
20260506213503 48 78 0.9 3.5 0.00 0.60 0.53 90 1011.6
20260506213003 48 87 0.0 2.6 0.00 0.60 0.53 90 1011.6
20260506212503 48 78 0.9 2.6 0.00 0.61 0.53 90 1011.6
20260506212003 48 66 0.9 1.7 0.00 0.64 0.53 90 1011.6
20260506211503 48 61 0.9 2.6 0.00 0.65 0.53 90 1011.6
20260506211003 48 63 0.9 2.6 0.00 0.67 0.53 90 1011.5
20260506210503 48 68 0.0 1.7 0.00 0.68 0.53 90 1011.4
20260506210004 48 69 0.0 0.9 0.00 0.69 0.53 90 1011.3
20260506205503 48 63 0.9 2.6 0.00 0.70 0.53 89 1011.4
20260506205217 48 66 0.9 2.6 0.00 0.70 0.53 89 1011.4
20260506204503 49 77 0.9 2.6 0.00 0.72 0.53 88 1011.2
20260506204003 49 68 0.9 5.2 0.00 0.72 0.53 88 1011.2
20260506203503 49 59 1.7 5.2 0.00 0.73 0.53 87 1011.1
20260506203003 49 57 1.7 4.3 0.00 0.75 0.53 86 1011.1
20260506202503 49 62 1.7 7.0 0.00 0.76 0.53 86 1011.1
20260506202004 50 64 0.9 7.0 0.00 0.76 0.53 85 1011.1
20260506201503 50 62 0.9 3.5 0.00 0.78 0.53 84 1011.2
20260506201217 50 62 0.9 3.5 0.00 0.78 0.53 84 1011.1
20260506200503 50 81 0.9 2.6 0.00 0.80 0.53 84 1011.1
20260506200003 50 66 0.9 4.3 0.00 0.80 0.53 83 1011.1
20260506195503 50 55 0.9 4.3 0.00 0.81 0.53 83 1011.0
20260506195003 50 59 0.9 3.5 0.00 0.82 0.53 83 1010.9
20260506194718 50 59 0.9 3.5 0.00 0.82 0.53 83 1010.9
20260506194008 50 75 0.9 3.5 0.00 0.83 0.53 82 1010.9
20260506193504 50 77 0.9 2.6 0.00 0.84 0.53 82 1010.8
20260506193004 50 68 0.0 1.7 0.00 0.85 0.53 82 1010.8
20260506192503 50 64 0.9 2.6 0.00 0.85 0.53 82 1010.7
20260506192003 50 66 0.9 2.6 0.00 0.86 0.53 81 1010.5
20260506191503 50 65 0.9 2.6 0.00 0.87 0.53 81 1010.5
20260506191218 50 65 0.9 2.6 0.00 0.87 0.53 81 1010.5
20260506190503 50 73 0.9 2.6 0.00 0.88 0.53 80 1010.3
20260506190004 50 77 0.9 1.7 0.00 0.89 0.53 80 1010.3
20260506185503 50 80 0.9 1.7 0.00 0.90 0.53 79 1010.2
20260506185003 50 70 0.9 4.3 0.00 0.91 0.53 78 1010.2
20260506184509 51 76 1.7 4.3 0.00 0.91 0.53 78 1010.2
20260506184003 51 81 1.7 4.3 0.00 0.91 0.53 77 1010.2
20260506183504 52 74 1.7 4.3 0.00 0.92 0.53 77 1010.1
20260506183003 52 73 1.7 4.3 0.00 0.92 0.53 76 1010.0
20260506182503 52 74 0.9 3.5 0.00 0.92 0.53 75 1010.0
20260506182003 52 79 0.9 3.5 0.00 0.92 0.53 75 1009.9
20260506181503 53 73 0.9 3.5 0.00 0.93 0.53 74 1009.8
20260506181003 53 65 1.7 3.5 0.00 0.93 0.53 72 1009.8
20260506180503 53 66 1.7 5.2 0.00 0.93 0.53 72 1009.7
20260506180004 54 70 0.9 5.2 0.00 0.93 0.53 72 1009.6
20260506175503 54 69 1.7 6.1 0.00 0.94 0.53 72 1009.5
20260506175218 54 66 1.7 6.1 0.00 0.94 0.53 71 1009.3
20260506174717 54 69 1.7 6.1 0.00 0.94 0.53 72 1009.3
20260506174003 54 61 1.7 6.1 0.00 0.94 0.53 73 1009.2
20260506173504 54 61 1.7 6.1 0.00 0.94 0.53 72 1009.2
20260506173003 55 65 1.7 6.1 0.00 0.94 0.53 72 1009.1
20260506172503 55 68 1.7 6.1 0.00 0.94 0.53 72 1009.2
20260506172218 55 72 1.7 6.1 0.00 0.94 0.53 73 1009.2
20260506171503 55 71 0.9 3.5 0.00 0.94 0.53 74 1009.1
20260506171003 55 73 0.9 2.6 0.00 0.94 0.53 75 1009.1
20260506170503 55 79 0.9 3.5 0.00 0.94 0.53 75 1009.1